DUMMY MASS 2

Last updated on Wed Nov 29 2017 00:19:02 GMT+0000 (Coordinated Universal Time)

1 24926U 97048B 17332.04239385 .00000096 00000-0 79722-5 0 9998 2 24926 86.3326 329.0051 0007716 173.5842 186.5482 14.84924455 95749
UTC large
Height (km)
Speed (km/s)
/
Latitude / Longitude
Inclination (degrees)
Orbital Period (minutes)
Azimuth
Elevation
Range (km)
Doppler Factor

Next 0 passes for location: London (51.5072 / 0.1276)

Sorry there are no passes over London.